Wetbulb
78.25 77.90 76.17 74.41 74.33 73.91 73.04 72.56 70.50 68.04 69.43 73.83 70.67 75.99 74.05 73.88 75.55 75.87 76.70 71.85 69.14 68.09 66.73 66.23 66.53 67.10 67.92 68.65 69.21 69.55 70.24 70.33 70.60 70.72 70.62 70.53 70.57 69.66
75.95 79.86 79.18 76.26 75.81 75.15 74.42 73.76 72.76 70.78 68.43 71.44 72.34 75.06 75.94 74.59 75.61 75.79 75.37 72.46 69.37 68.16 67.18 66.04 65.67 65.92 66.31 66.85 67.30 67.51 68.00 68.49 68.55 68.74 68.81 68.67 68.80 69.20
78.84 78.21 78.72 80.16 75.84 74.69 74.84 74.27 73.59 73.01 70.48 71.73 72.84 76.44 79.54 78.62 77.91 77.76 76.24 77.49 75.13 67.70 67.04 66.27 65.33 65.18 65.36 65.44 65.48 65.64 65.97 66.35 66.69 67.44 67.80 67.93 67.96 68.15
77.86 78.80 77.14 76.67 79.19 79.54 76.65 79.65 76.82 77.92 73.03 74.91 75.10 74.59 77.65 79.01 78.75 79.12 75.74 75.87 75.99 72.18 66.76 65.77 65.17 64.55 64.30 64.10 63.67 63.47 63.15 63.58 64.10 64.89 65.79 66.80 67.12 67.33
78.33 78.64 78.32 78.93 79.38 77.57 79.02 76.31 75.58 76.68 76.80 74.72 74.62 76.07 76.18 76.47 77.28 79.39 79.04 78.26 77.41 73.29 68.90 65.63 64.91 64.70 64.29 63.29 62.26 61.24 59.87 59.37 60.66 61.42 62.73 63.81 65.18 66.12
79.17 79.26 79.13 79.13 79.69 80.16 78.70 79.92 78.61 77.45 76.48 74.97 74.48 75.20 75.66 78.28 76.76 75.32 75.66 77.06 77.27 77.57 75.21 72.03 70.01 66.67 64.78 62.96 62.53 62.37 59.31 57.88 57.92 58.32 59.46 60.27 61.83 63.62
79.07 79.13 79.29 78.22 73.51 75.96 77.76 79.37 79.52 77.97 75.45 74.70 74.13 74.22 73.90 74.54 75.63 76.33 75.51 77.15 78.21 77.74 77.37 78.76 78.37 78.74 75.24 65.63 67.28 65.31 62.17 60.12 58.36 57.54 58.06 57.67 58.91 60.01
78.94 79.69 80.05 75.14 74.34 69.71 69.05 69.27 73.50 77.61 78.93 75.72 74.34 74.11 76.67 76.55 76.84 75.75 75.45 74.21 73.97 78.84 78.96 78.40 78.63 77.43 78.59 78.17 72.07 65.51 62.88 61.20 59.90 58.55 57.22 56.90 56.69 57.66
79.17 79.45 78.62 76.64 75.94 79.49 71.38 68.80 69.13 67.16 68.44 76.33 76.06 76.39 76.45 78.13 78.78 77.94 76.47 77.28 77.22 78.11 78.35 75.84 78.17 77.03 78.83 78.05 69.73 66.64 62.64 61.46 60.10 59.19 58.38 56.93 56.39 56.03
79.45 79.68 79.77 79.36 79.60 78.61 79.45 78.97 78.42 79.07 77.58 75.55 76.74 77.57 78.80 79.62 79.50 78.54 79.00 78.83 78.27 77.87 79.52 74.19 77.13 76.96 78.20 78.61 69.50 65.67 63.80 61.21 60.00 58.65 57.64 56.58 54.94 54.03
78.81 79.04 79.24 79.58 73.17 66.45 77.96 77.41 78.08 78.61 72.20 65.36 65.80 66.52 65.83 64.00 67.85 75.18 75.09 74.65 73.94 75.25 78.20 76.33 76.58 76.12 76.19 75.00 75.62 67.09 63.51 60.64 59.71 59.86 57.76 56.54 54.42 53.22
78.50 79.35 69.08 74.37 67.41 62.53 77.54 78.09 77.23 78.15 78.26 78.48 79.22 74.99 68.60 73.05 64.75 72.93 75.57 73.62 73.82 72.65 78.66 74.53 75.09 74.40 71.23 74.03 74.36 74.35 73.46 63.86 58.03 57.21 57.35 56.03 53.93 61.35
75.36 75.03 76.40 64.21 62.00 61.01 61.86 77.67 76.46 76.65 75.16 77.98 78.00 79.04 79.06 79.84 79.90 80.40 78.82 76.20 74.76 73.03 75.28 76.95 74.15 72.39 70.87 69.75 70.34 70.94 70.59 70.07 70.80 68.44 60.08 53.89 52.46 55.18
75.64 74.17 75.36 61.25 58.32 58.99 61.82 63.82 60.97 63.70 75.49 75.69 75.98 76.73 76.79 76.81 76.44 77.57 78.08 76.75 78.70 76.59 78.75 78.57 71.79 70.05 68.03 65.99 65.79 68.61 68.96 68.15 65.75 66.16 65.50 61.65 58.51 54.55
76.58 69.84 62.50 59.86 57.80 59.73 57.91 61.34 59.89 74.74 75.29 75.90 75.57 75.37 74.65 75.03 76.89 76.03 77.32 80.11 79.65 79.29 75.92 74.81 71.53 71.09 67.87 65.28 64.57 65.38 63.63 63.15 63.78 63.23 63.30 62.06 61.11 63.60
69.34 74.05 71.69 65.86 62.67 68.03 71.88 66.23 75.43 76.95 76.68 74.49 71.78 72.68 74.53 73.99 74.20 76.66 75.21 73.66 71.02 70.90 74.87 73.24 72.47 70.80 66.67 65.60 64.65 63.91 62.51 58.37 61.14 59.34 58.23 58.85 59.27 63.18
73.44 76.06 75.73 76.04 76.34 77.01 77.21 77.91 78.07 75.52 72.78 71.77 72.00 73.08 72.11 75.12 75.70 75.34 72.15 70.84 69.42 69.08 69.49 70.59 72.92 72.01 68.24 66.72 62.97 62.53 59.14 58.54 57.83 56.55 56.40 55.07 54.19 55.17
73.26 75.95 75.97 76.05 75.44 76.32 75.65 74.55 73.29 70.88 72.05 72.53 72.93 73.58 73.52 72.95 71.78 71.27 70.86 69.67 68.75 69.02 68.84 68.23 68.60 67.35 66.39 60.36 59.72 59.88 58.18 56.95 56.34 55.67 55.22 53.32 51.52 53.74
76.48 76.06 76.50 75.45 73.52 72.68 72.25 71.61 71.18 72.15 73.25 72.64 72.00 72.23 71.65 70.91 69.07 69.33 69.61 69.36 68.99 69.07 67.65 67.57 67.87 65.68 61.98 59.64 61.64 56.20 55.77 56.07 55.45 54.07 53.96 52.71 50.91 51.87
74.93 72.62 70.85 69.76 68.27 68.06 68.31 68.89 70.08 71.51 71.01 71.30 70.68 70.32 70.04 69.79 69.43 69.27 68.84 68.34 67.53 67.20 66.20 67.08 67.24 66.04 63.05 61.50 60.32 61.16 50.43 56.29 55.20 53.90 52.57 53.35 53.23 53.34
70.91 70.68 70.21 68.75 68.87 69.16 68.66 69.00 69.62 67.96 67.97 68.98 68.41 68.36 68.39 68.01 67.49 66.98 66.29 57.58 60.86 65.09 65.02 65.71 66.85 60.77 65.65 65.90 62.42 61.72 58.30 50.41 53.82 56.35 54.74 53.08 52.29 52.82
73.73 70.94 69.31 68.18 67.28 67.63 67.50 67.58 67.10 65.54 66.00 66.55 66.41 67.11 66.80 66.43 65.83 65.57 65.46 65.13 65.04 64.79 64.78 64.72 67.18 66.79 65.77 63.93 62.18 61.72 60.08 59.96 52.91 52.01 51.88 53.02 55.43 51.22
68.55 67.94 66.35 65.88 65.74 65.81 65.81 65.03 64.63 65.38 64.99 64.25 64.39 64.89 65.59 64.28 65.43 65.26 65.29 65.61 66.01 65.13 64.16 63.77 63.73 64.97 63.94 63.60 58.41 61.55 60.32 59.59 59.17 58.29 58.32 51.28 52.55 53.24
MSLP
1019.77 1019.97 1020.04 1019.24 1018.98 1019.11 1019.09 1019.03 1018.86 1018.14 1017.49 1018.06 1017.72 1017.92 1018.20 1018.17 1018.24 1018.58 1018.57 1018.88 1019.35 1019.54 1019.65 1019.78 1019.93 1019.95 1019.87 1019.79 1019.74 1019.70 1019.69 1019.78 1019.90 1019.99 1020.13 1020.24 1020.39 1020.34
1019.26 1019.24 1019.61 1019.12 1018.88 1019.04 1018.94 1018.80 1018.77 1018.68 1018.20 1017.63 1017.42 1017.42 1017.61 1017.87 1018.12 1018.27 1018.26 1018.36 1018.60 1018.62 1018.76 1018.89 1019.02 1019.08 1019.02 1018.90 1018.82 1018.82 1018.88 1018.97 1019.09 1019.22 1019.38 1019.60 1019.76 1019.76
1018.93 1018.83 1019.22 1019.45 1019.05 1018.54 1018.62 1018.67 1018.54 1018.44 1018.22 1017.84 1017.48 1017.30 1017.54 1017.96 1017.89 1018.02 1018.06 1017.64 1017.31 1017.49 1017.50 1017.58 1017.74 1017.91 1018.00 1018.10 1018.12 1018.17 1018.25 1018.32 1018.34 1018.48 1018.70 1018.89 1018.94 1019.03
1018.62 1018.75 1018.82 1019.00 1019.25 1019.09 1018.82 1018.50 1018.26 1018.22 1018.25 1017.98 1017.87 1017.71 1017.56 1017.31 1016.98 1017.25 1017.39 1017.01 1016.82 1016.46 1016.92 1016.72 1016.83 1016.85 1016.76 1016.68 1016.92 1017.24 1017.46 1017.54 1017.62 1017.84 1017.87 1018.02 1018.16 1018.22
1018.11 1018.21 1018.38 1018.58 1018.68 1018.58 1018.50 1018.38 1018.07 1018.12 1018.10 1017.83 1017.34 1017.01 1016.78 1016.65 1016.32 1016.24 1016.31 1016.08 1015.76 1015.11 1014.94 1015.06 1015.28 1015.07 1015.32 1015.69 1015.53 1015.47 1015.56 1015.78 1016.24 1016.53 1016.80 1016.99 1017.19 1017.25
1017.49 1017.66 1017.82 1017.98 1018.16 1018.35 1018.50 1018.47 1018.40 1018.22 1017.85 1017.53 1017.02 1016.46 1015.92 1015.64 1015.51 1015.25 1015.02 1014.74 1014.39 1014.00 1013.64 1013.34 1013.41 1013.98 1014.04 1014.13 1014.14 1014.46 1014.50 1014.62 1014.76 1014.97 1015.14 1015.42 1015.82 1015.82
1016.83 1016.98 1017.16 1017.31 1017.55 1017.81 1017.84 1017.74 1017.82 1017.72 1017.39 1016.93 1016.34 1015.87 1015.42 1015.14 1015.18 1015.10 1014.84 1014.34 1014.04 1013.73 1013.16 1012.95 1012.85 1012.82 1012.97 1013.40 1013.25 1013.21 1013.24 1013.21 1013.31 1013.47 1013.75 1013.95 1014.27 1014.54
1016.17 1016.34 1016.48 1016.59 1016.99 1017.33 1017.59 1017.69 1017.72 1017.82 1017.52 1017.16 1016.63 1016.11 1015.88 1015.78 1015.35 1015.28 1014.94 1014.52 1013.70 1013.59 1013.28 1012.90 1012.61 1012.43 1012.07 1011.82 1011.44 1011.62 1011.74 1011.91 1011.98 1012.18 1012.44 1012.81 1012.97 1012.97
1015.41 1015.66 1015.80 1015.63 1015.96 1016.35 1016.66 1016.97 1017.09 1017.14 1017.28 1017.35 1016.98 1016.58 1016.16 1016.10 1015.79 1015.56 1015.34 1014.82 1014.22 1013.76 1013.49 1012.81 1012.71 1012.24 1011.78 1011.16 1010.97 1010.93 1010.89 1010.91 1010.74 1010.85 1011.16 1011.52 1011.58 1011.62
1014.63 1014.84 1015.13 1015.25 1015.36 1015.57 1015.74 1015.75 1015.90 1015.92 1015.95 1016.08 1016.02 1015.92 1015.93 1015.71 1015.51 1015.15 1014.98 1014.74 1014.40 1013.96 1013.64 1012.82 1012.44 1011.75 1011.32 1010.90 1010.56 1010.52 1010.37 1010.30 1010.22 1010.05 1010.10 1010.22 1010.27 1010.35
1014.26 1014.39 1014.47 1014.62 1014.88 1015.31 1015.55 1015.38 1015.29 1015.00 1014.73 1015.02 1015.01 1014.90 1014.89 1015.10 1015.23 1015.05 1014.69 1014.30 1013.87 1013.82 1013.42 1013.00 1011.95 1011.51 1011.16 1010.87 1010.26 1009.96 1009.61 1009.38 1009.24 1008.88 1008.84 1008.88 1008.95 1009.01
1013.44 1013.60 1013.86 1014.11 1014.39 1014.71 1014.92 1014.86 1014.64 1014.59 1014.46 1014.11 1014.26 1014.34 1014.45 1014.13 1014.42 1014.76 1014.63 1014.52 1014.15 1013.53 1012.88 1012.92 1012.18 1011.96 1010.90 1010.00 1009.79 1009.50 1009.30 1008.98 1008.98 1008.64 1008.35 1008.20 1008.25 1008.50
1012.05 1011.88 1012.14 1012.57 1013.26 1013.78 1014.11 1014.32 1014.18 1014.26 1014.17 1014.12 1014.03 1013.82 1013.46 1013.30 1013.50 1013.70 1013.93 1014.08 1013.87 1013.51 1013.05 1012.89 1012.14 1011.65 1011.28 1010.48 1010.16 1009.85 1009.56 1009.14 1008.86 1008.53 1008.10 1008.44 1008.56 1008.53
1011.10 1010.81 1011.10 1011.42 1011.90 1012.56 1013.27 1013.81 1014.02 1014.22 1014.18 1013.91 1013.69 1013.25 1013.34 1013.45 1013.59 1013.43 1013.16 1013.17 1013.00 1013.08 1012.52 1012.42 1012.23 1012.10 1011.95 1011.46 1010.81 1010.34 1010.17 1010.04 1009.86 1009.04 1008.71 1007.85 1007.58 1007.00
1011.06 1011.13 1011.41 1011.65 1012.06 1012.56 1012.90 1013.28 1013.59 1013.77 1013.55 1013.49 1013.56 1013.67 1013.76 1013.60 1013.22 1013.14 1012.59 1011.90 1011.89 1011.77 1011.61 1011.90 1012.27 1012.51 1012.46 1011.94 1011.48 1011.08 1010.76 1010.66 1010.18 1009.98 1009.38 1008.71 1007.78 1006.66
1011.17 1011.06 1011.07 1011.54 1011.78 1011.95 1012.40 1012.86 1012.94 1012.85 1012.82 1013.37 1013.58 1013.59 1013.39 1013.05 1012.79 1012.10 1011.91 1011.31 1011.22 1011.19 1011.05 1011.60 1012.00 1012.39 1012.30 1012.32 1012.23 1011.49 1011.77 1011.71 1011.01 1010.88 1010.35 1009.14 1008.21 1006.43
1010.15 1010.41 1010.48 1010.64 1010.84 1011.06 1011.47 1011.77 1012.24 1012.80 1013.17 1013.25 1013.27 1013.06 1012.75 1012.34 1011.99 1011.54 1011.26 1011.32 1011.32 1011.16 1011.02 1011.18 1011.44 1011.80 1012.29 1012.87 1012.58 1012.40 1012.64 1012.17 1012.02 1011.51 1010.55 1009.87 1009.14 1008.06
1009.72 1009.24 1009.37 1009.82 1010.32 1010.69 1011.27 1011.83 1012.32 1012.64 1012.70 1012.64 1012.45 1012.26 1011.94 1011.50 1011.30 1011.26 1011.37 1011.44 1011.45 1011.28 1011.20 1011.39 1011.34 1011.49 1011.99 1013.63 1013.35 1013.04 1012.96 1012.70 1012.51 1011.95 1011.16 1010.67 1010.01 1009.26
1008.69 1009.00 1009.30 1009.99 1010.66 1011.14 1011.45 1011.68 1011.85 1012.01 1011.94 1012.02 1011.93 1011.52 1011.49 1011.42 1011.53 1011.55 1011.43 1011.36 1011.21 1011.27 1011.71 1011.56 1011.30 1011.73 1012.25 1012.52 1013.22 1013.50 1013.74 1013.36 1013.20 1012.77 1012.17 1011.64 1011.55 1010.80
1009.10 1009.59 1009.98 1010.52 1010.96 1011.28 1011.54 1011.68 1011.63 1011.58 1011.86 1011.93 1011.79 1011.66 1011.44 1011.35 1011.27 1011.31 1011.60 1011.71 1011.94 1011.86 1011.83 1011.51 1011.34 1011.61 1012.23 1012.37 1012.88 1013.25 1013.93 1013.78 1013.60 1013.24 1013.06 1013.03 1012.53 1012.20
1009.22 1009.92 1010.08 1010.40 1010.97 1011.32 1011.64 1011.90 1012.06 1012.22 1012.31 1012.39 1012.34 1012.02 1012.03 1012.20 1012.15 1012.33 1012.44 1012.74 1012.80 1012.73 1012.24 1011.64 1011.83 1012.19 1012.28 1012.09 1011.94 1012.04 1013.58 1014.05 1013.81 1013.28 1013.16 1013.19 1013.08 1013.05
1009.14 1009.52 1009.72 1010.51 1011.28 1011.64 1011.99 1012.14 1012.32 1012.62 1012.83 1012.69 1012.62 1012.58 1012.68 1012.74 1012.55 1012.66 1012.77 1012.74 1012.72 1012.77 1012.48 1012.51 1012.22 1011.88 1011.53 1011.29 1011.03 1011.82 1012.76 1013.21 1013.58 1013.26 1013.05 1012.81 1012.80 1013.15
1009.56 1010.26 1010.86 1011.02 1011.78 1012.26 1012.27 1012.42 1012.54 1012.56 1012.66 1012.68 1012.60 1012.56 1012.65 1012.58 1012.56 1012.49 1012.40 1012.40 1012.17 1012.32 1012.41 1012.24 1012.04 1011.59 1011.07 1010.79 1011.10 1010.81 1011.90 1012.43 1012.31 1012.32 1012.29 1012.78 1012.41 1012.66
Wind_Speed
8 7 7 7 4 4 4 4 5 6 3 5 3 4 3 4 4 7 8 13 17 17 18 17 17 18 19 20 20 20 19 19 17 16 14 14 13 15
7 8 7 7 5 4 5 5 5 6 7 7 3 3 3 5 4 6 9 8 15 17 18 19 19 20 21 22 22 22 22 21 20 19 17 16 14 15
8 6 8 7 8 6 6 6 6 6 7 7 7 6 4 6 7 7 9 10 10 20 22 22 21 21 22 23 23 22 22 22 21 20 20 18 18 17
11 9 10 8 9 8 8 7 6 5 7 8 8 9 9 9 9 9 8 9 10 10 17 19 19 21 23 24 23 22 21 21 21 21 21 21 20 20
11 11 11 10 9 9 8 9 8 8 9 9 9 8 8 8 9 9 9 10 10 18 18 19 21 24 21 22 24 25 24 23 23 21 22 22 21 22
11 11 11 11 11 10 10 9 9 9 9 10 10 9 9 7 7 8 8 7 9 11 11 15 15 21 24 23 24 23 22 23 24 24 25 24 23 26
11 12 13 12 11 11 10 10 10 10 10 10 10 9 9 8 9 10 11 9 9 11 11 10 8 6 7 18 18 22 22 24 25 26 25 26 25 26
12 12 12 10 14 12 11 12 11 9 9 10 11 11 11 11 9 10 12 12 13 9 8 11 9 8 9 9 12 17 19 22 23 23 23 25 25 28
12 11 12 12 13 13 16 16 16 14 14 12 14 13 14 12 11 12 12 12 12 11 12 12 10 10 9 12 11 11 12 17 20 22 22 23 26 27
12 13 13 12 11 9 11 12 14 14 14 12 14 13 12 12 12 11 12 11 9 9 9 13 10 10 8 7 12 11 12 13 16 16 20 22 23 24
13 14 13 13 13 11 13 14 14 13 13 13 15 16 14 11 10 11 11 10 10 7 9 9 9 11 10 10 9 13 13 12 15 18 17 20 22 24
14 15 15 16 12 10 12 13 14 12 12 12 11 8 11 11 15 9 7 7 7 6 3 6 7 8 10 11 8 9 11 12 9 15 17 16 17 12
13 12 13 21 22 19 15 14 14 10 12 9 8 8 8 7 5 4 7 7 6 6 9 3 7 10 9 12 10 10 11 11 11 13 11 6 11 15
13 11 11 11 19 19 13 12 11 8 10 10 10 9 7 8 7 8 8 7 8 11 10 7 8 9 10 11 12 10 10 11 13 10 14 13 14 15
13 2 9 8 8 5 11 11 9 8 9 7 7 7 7 7 8 7 12 11 10 10 8 3 5 7 8 10 11 11 11 11 9 13 14 15 16 14
14 13 10 2 0 1 4 6 8 8 7 5 5 5 7 6 8 7 7 7 7 7 2 0 2 3 8 8 9 9 10 10 12 13 13 12 13 13
11 11 11 11 11 8 7 6 3 4 5 4 5 5 6 7 7 7 5 6 7 7 6 4 1 3 4 5 7 8 9 9 12 13 12 8 9 10
11 10 9 7 6 5 4 3 3 4 5 6 6 6 6 6 6 5 5 6 6 6 5 6 6 6 6 5 10 7 8 9 10 11 9 7 9 10
9 8 5 4 3 3 3 4 4 5 5 3 6 6 5 5 3 6 6 6 6 4 6 7 6 5 7 9 4 12 8 7 7 7 7 6 7 9
4 5 5 5 5 4 3 4 5 5 2 3 3 5 5 6 5 5 5 6 6 6 7 7 6 4 6 7 5 4 9 5 4 4 4 4 4 10
7 5 5 6 5 4 4 2 2 3 3 2 2 5 5 5 5 5 5 3 5 7 9 8 3 4 4 7 9 2 3 4 3 3 4 5 5 6
6 6 6 7 5 4 2 2 3 2 1 2 2 3 3 3 5 4 4 5 5 6 8 6 10 5 7 9 9 4 1 3 7 5 4 3 2 3
6 6 6 6 6 4 4 4 3 2 2 3 3 3 3 4 3 5 5 6 7 6 6 8 7 9 6 7 3 3 6 7 5 6 7 4 2 8
Wind_Direction
197 221 249 272 228 238 240 248 281 302 310 175 265 135 306 261 214 220 243 196 207 210 215 219 223 226 226 227 229 230 232 232 233 234 233 240 240 250
232 190 229 255 246 239 261 247 242 264 286 301 245 279 270 305 296 266 268 278 212 217 217 220 224 229 232 231 231 231 232 232 232 231 230 229 229 236
259 236 213 259 272 249 224 241 257 254 265 274 293 310 323 233 259 273 283 275 260 211 216 220 221 224 230 237 239 237 235 235 233 231 231 226 227 228
218 234 235 229 226 262 281 281 274 294 285 289 292 290 279 268 255 241 252 272 286 304 215 226 225 226 228 230 233 236 237 237 236 232 232 228 225 225
229 228 230 232 240 250 239 257 249 228 236 250 268 274 285 286 273 248 238 247 251 244 232 218 222 225 230 234 232 230 228 227 229 225 227 228 222 225
230 234 232 231 231 230 238 251 259 269 276 273 272 273 270 279 273 266 263 283 300 302 291 265 213 224 227 229 233 236 234 230 230 226 226 223 219 221
236 227 231 237 236 236 245 235 245 248 255 263 270 281 289 301 322 318 295 287 304 311 298 317 316 289 229 240 246 238 233 231 230 230 231 223 224 221
229 234 241 226 226 229 232 252 264 277 280 284 287 286 292 289 292 307 312 306 299 290 330 306 302 303 304 283 257 229 223 231 234 230 227 227 224 222
227 233 238 239 216 229 219 230 240 244 237 258 266 269 282 289 296 294 287 292 301 316 303 302 307 304 304 294 303 284 234 234 234 228 225 224 227 226
236 226 232 248 260 259 244 239 226 229 226 229 237 252 259 259 254 266 285 289 285 291 296 295 297 283 293 312 307 286 277 252 252 240 228 227 228 226
236 240 246 247 239 215 245 257 265 268 274 256 246 250 252 268 269 284 281 289 289 286 296 297 305 322 315 305 315 299 277 258 248 255 238 229 229 227
229 233 232 242 244 212 232 245 253 257 262 273 276 251 244 250 249 250 271 257 272 292 314 308 316 314 313 305 333 328 325 344 297 266 266 248 235 246
236 239 233 208 218 224 216 243 253 273 277 280 279 278 280 284 245 235 244 252 266 258 276 325 308 313 312 320 321 329 341 334 335 337 328 283 265 244
247 246 241 215 202 212 212 231 243 259 262 263 269 273 290 292 287 289 289 258 237 247 285 292 301 320 325 316 315 332 332 348 330 327 331 307 312 256
242 219 75 127 139 175 217 213 204 229 244 251 257 266 271 270 274 272 246 255 255 245 256 311 319 329 312 311 317 323 344 334 338 330 341 323 311 296
242 261 270 325 85 264 148 184 215 232 241 229 237 245 261 254 248 252 267 280 297 294 218 329 282 298 311 324 319 326 355 333 337 342 324 321 338 325
210 223 232 233 239 238 237 232 201 194 215 209 226 246 244 245 248 249 282 283 282 291 295 309 38 277 351 331 315 354 343 343 346 336 335 343 342 346
201 219 215 227 227 230 208 176 201 194 207 210 220 237 262 268 281 286 297 278 277 287 315 319 308 317 326 102 9 5 356 353 353 347 356 347 360 357
210 215 221 186 150 170 180 179 189 202 214 230 243 254 277 279 251 261 272 280 281 329 313 300 296 320 313 307 91 48 9 350 350 3 9 22 17 15
173 159 149 151 152 154 173 205 207 185 171 336 328 303 293 283 284 293 313 326 302 314 304 292 300 296 303 308 305 24 76 339 338 31 37 40 56 40
156 159 154 138 121 102 75 73 42 50 340 322 289 306 358 329 319 320 320 290 307 287 297 302 43 129 277 256 240 139 93 123 9 69 105 75 56 59
113 126 102 85 92 87 117 109 162 158 246 270 280 292 288 273 277 288 269 274 276 261 278 291 298 235 236 265 293 113 146 171 171 162 112 76 139 132
109 114 114 114 128 142 158 156 164 176 217 249 242 255 273 285 289 301 282 277 275 274 263 273 276 286 246 263 245 277 170 214 225 185 186 17 274 186